Location: Gälforsberget
(66.6500°N, 22.4167°E)
Time: 17:06:32
(UTC+00:00)

Cosmos 1943 - Pass Details

Date: 11 April 2026
Orbit: 832 x 847 km, 71.0° (Epoch: 16 May)

Event Time Altitude Azimuth Distance (km) Brightness Sun altitude
Exits shadow 23:21:17 20° 204° (SSW) 1,848 4.4 -14.2°
Maximum altitude 23:25:08 60° 131° (SE) 969 3.4 -14.1°
Drops below altitude 10° 23:30:43 10° 53° (NE) 2,477 6.4 -14.0°
Sets 23:33:12 0° 50° (NE) 3,412 7.4 -13.9°
